Weather History for Stuart, FL

Change the Weather History Date:

Wednesday, November 7, 2012

  Actual Average Record
Temperature  
Mean Temperature 62 °F -  
Max Temperature 69 °F 80 °F 87 °F (1958)
Min Temperature 55 °F 62 °F 48 °F (1969)
Degree Days  
Heating Degree Days 3    
Growing Degree Days 12 (Base 50)    
Moisture  
Dew Point 51 °F    
Average Humidity 70    
Maximum Humidity 94    
Minimum Humidity 40    
Precipitation  
Precipitation 0.00 in - - ()
Sea Level Pressure  
Sea Level Pressure 29.92 in    
Wind  
Wind Speed 8 mph (WNW)    
Max Wind Speed 21 mph    
Max Gust Speed 28 mph    
Visibility 10 miles    
Events      
Averages and records for this station are not official NWS values.
T = Trace of Precipitation, MM = Missing Value Source: NWS Daily Summary

Daily Weather History Graph

Daily Weather History Graph

Search for Another Location

Airport:

Trip Planner

Search our weather history database for the weather conditions in past years. The results will help you decide how hot, cold, wet, or windy it might be!

Date:

Astronomy

Nov. 07, 2012 Rise Set
Actual Time 6:35 AM EST 5:33 PM EST
Civil Twilight 6:11 AM EST 5:57 PM EST
Nautical Twilight 5:43 AM EST 6:25 PM EST
Astronomical Twilight 5:15 AM EST 6:52 PM EST
Moon 12:04 AM EST (11/7) 1:08 PM EST (11/7)
Length of Visible Light 11h 46m
Length of Day
10h 57m
Last Quarter, 43% of the Moon is Illuminated
Nov 7
Last Quarter
Nov 13
New
Nov 20
First Quarter
Nov 28
Full
Dec 6
Last Quarter

Hourly Weather History & Observations

Time (EST) Temp. Dew Point Humidity Pressure Visibility Wind Dir Wind Speed Gust Speed Precip Events Conditions
12:15 AM 64.4 °F 62.6 °F 94% 29.87 in 10.0 mi West 4.6 mph - N/A   Clear
12:35 AM 64.4 °F 60.8 °F 88% 29.87 in 10.0 mi West 4.6 mph - N/A   Clear
12:55 AM 62.6 °F 60.8 °F 94% 29.87 in 10.0 mi West 4.6 mph - N/A   Clear
1:15 AM 62.6 °F 60.8 °F 94% 29.86 in 10.0 mi WNW 6.9 mph - N/A   Clear
1:35 AM 62.6 °F 60.8 °F 94% 29.86 in 10.0 mi WNW 6.9 mph - N/A   Clear
1:55 AM 62.6 °F 60.8 °F 94% 29.86 in 10.0 mi West 6.9 mph - N/A   Clear
2:15 AM 62.6 °F 60.8 °F 94% 29.85 in 10.0 mi WNW 6.9 mph - N/A   Clear
2:35 AM 62.6 °F 60.8 °F 94% 29.85 in 10.0 mi WNW 6.9 mph - N/A   Clear
2:55 AM 62.6 °F 60.8 °F 94% 29.85 in 10.0 mi WNW 8.1 mph - N/A   Clear
3:15 AM 62.6 °F 59.0 °F 88% 29.86 in 10.0 mi WNW 11.5 mph - N/A   Clear
3:55 AM 60.8 °F 59.0 °F 94% 29.87 in 10.0 mi WNW 9.2 mph - N/A   Clear
4:15 AM 60.8 °F 57.2 °F 88% 29.87 in 10.0 mi WNW 6.9 mph - N/A   Clear
4:35 AM 60.8 °F 55.4 °F 82% 29.88 in 10.0 mi WNW 6.9 mph - N/A   Clear
4:55 AM 60.8 °F 57.2 °F 88% 29.88 in 10.0 mi West 5.8 mph - N/A   Clear
5:15 AM 59.0 °F 55.4 °F 88% 29.89 in 10.0 mi West 4.6 mph - N/A   Clear
6:47 AM 57.2 °F 55.4 °F 94% 29.91 in 7.0 mi West 5.8 mph - N/A   Partly Cloudy
7:47 AM 59.0 °F 57.2 °F 94% 29.93 in 7.0 mi WNW 9.2 mph - N/A   Mostly Cloudy
8:47 AM 62.6 °F 53.6 °F 72% 29.94 in 10.0 mi WNW 9.2 mph - N/A   Mostly Cloudy
9:47 AM 64.4 °F 50.0 °F 59% 29.96 in 10.0 mi WNW 13.8 mph - N/A   Partly Cloudy
10:47 AM 66.2 °F 48.2 °F 52% 29.95 in 10.0 mi WNW 15.0 mph 21.9 mph N/A   Partly Cloudy
11:47 AM 68.0 °F 46.4 °F 46% 29.92 in 10.0 mi West 15.0 mph 27.6 mph N/A   Partly Cloudy
12:47 PM 69.8 °F 46.4 °F 43% 29.89 in 7.0 mi WNW 20.7 mph 27.6 mph N/A   Scattered Clouds
2:47 PM 69.8 °F 44.6 °F 40% 29.88 in 7.0 mi WNW 11.5 mph 20.7 mph N/A   Scattered Clouds
3:47 PM 68.0 °F 44.6 °F 43% 29.87 in 7.0 mi WNW 13.8 mph 20.7 mph N/A   Scattered Clouds
4:47 PM 66.2 °F 42.8 °F 43% 29.89 in 7.0 mi WNW 13.8 mph 20.7 mph N/A   Scattered Clouds
6:47 PM 62.6 °F 44.6 °F 52% 29.92 in 7.0 mi WNW 9.2 mph - N/A   Scattered Clouds
7:15 PM 62.6 °F 44.6 °F 52% 29.94 in 10.0 mi NW 4.6 mph - N/A   Clear
7:35 PM 60.8 °F 44.6 °F 55% 29.95 in 10.0 mi WNW 5.8 mph - N/A   Clear
7:55 PM 60.8 °F 44.6 °F 55% 29.96 in 10.0 mi NW 5.8 mph - N/A   Clear
8:15 PM 60.8 °F 44.6 °F 55% 29.97 in 10.0 mi NW 6.9 mph - N/A   Clear
8:35 PM 60.8 °F 44.6 °F 55% 29.98 in 10.0 mi NW 9.2 mph 16.1 mph N/A   Clear
8:55 PM 60.8 °F 44.6 °F 55% 29.99 in 10.0 mi NW 6.9 mph - N/A   Clear
9:15 PM 60.8 °F 44.6 °F 55% 30.00 in 10.0 mi NW 9.2 mph - N/A   Clear
9:35 PM 59.0 °F 42.8 °F 55% 30.00 in 10.0 mi NW 6.9 mph - N/A   Clear
9:55 PM 59.0 °F 44.6 °F 59% 30.01 in 10.0 mi NW 8.1 mph - N/A   Clear
10:15 PM 59.0 °F 44.6 °F 59% 30.01 in 10.0 mi NW 8.1 mph - N/A   Clear
10:35 PM 57.2 °F 44.6 °F 63% 30.01 in 10.0 mi NW 8.1 mph - N/A   Clear
10:55 PM 57.2 °F 42.8 °F 59% 30.00 in 10.0 mi NW 8.1 mph - N/A   Clear
11:15 PM 55.4 °F 44.6 °F 67% 30.00 in 10.0 mi NW 6.9 mph - N/A   Clear
11:35 PM 55.4 °F 44.6 °F 67% 30.00 in 10.0 mi WNW 6.9 mph - N/A   Clear
11:55 PM 55.4 °F 44.6 °F 67% 30.00 in 10.0 mi NW 6.9 mph - N/A   Clear